Regional Weather Roundup
Issued by NWS Grand Forks, ND

Home | Current Version | Previous Version | Text Only | Print | Product List | Glossary On
Versions: 1 2 3 4 5 6 7 8 9 10 11 12 13 14 15 16 17 18 19 20 21 22 23 24 25 26 27 28 29 30 31 32 33 34 35 36 37 38 39 40 41 42 43 44 45 46 47 48 49 50
000
ASUS43 KFGF 251110
RWRFGF
PRAIRIE TO PINES  WEATHER ROUNDUP
NATIONAL WEATHER SERVICE EASTERN NORTH DAKOTA/GRAND FORKS ND
500 AM CST SUN JAN 25 2015

 **SATELLITE DATA USED TO AUGMENT SKY COVER AT AUTOMATED STATIONS**
 *****  WEATHER ACROSS EASTERN NORTH DAKOTA  *****

CITY           SKY/WX    TMP DP  RH WIND       PRES   REMARKS
GRAND FORKS    CLEAR     14   9  80 N8        29.99R WCI   3
GRAND FRKS AFB CLEAR     13   9  83 N7        30.00R WCI   3
GRAND FRKS NWS   N/A     14 N/A N/A N9          N/A  WCI   2
DEVILS LAKE    CLOUDY    16  10  79 NE5       29.96R WCI   9
FARGO          CLOUDY    22  16  78 N12       29.95R WCI  10
WAHPETON ARPT  CLOUDY    23  19  86 N14       29.93R WCI  11
$$

 ***** WEATHER ACROSS CENTRAL AND WESTERN NORTH DAKOTA  *****

CITY           SKY/WX    TMP DP  RH WIND       PRES   REMARKS
BISMARCK       CLOUDY    37  32  82 NW13      29.94R
MINOT          LGT SNOW  27  25  92 N7        29.93S FOG     WCI  19
JAMESTOWN      CLOUDY    21  18  88 N9        29.95R WCI  11
MINOT AFB      FRZ RAIN  25  25 100 N10       29.94S FOG     WCI  15
GARRISON         N/A     35  33  92 NW15      29.92R
WILLISTON      CLOUDY    35  30  82 N14G21    29.98F
DICKINSON      CLOUDY    33  29  85 W7        29.96R
HETTINGER      CLEAR     31  27  85 NW15      29.99R WCI  20
$$

 *****  OTHER AIRPORT OBSERVATIONS IN OUR AREA  *****

CITY           SKY/WX    TMP DP  RH WIND       PRES   REMARKS
WALHALLA         N/A     14  14 100 NW7       30.01R WCI   4
GRAFTON AIRPOR NOT AVBL
VALLEY CITY AR NOT AVBL
CANDO          CLOUDY    16  10  79 NE5       29.97F WCI   9
CAVALIER APRT  CLOUDY    16  10  79 N5        30.02R WCI   9
GWINNER        CLOUDY    25  25 100 N14       29.94R WCI  13
SHEYENNE NWR     N/A     21  16  82 N9        29.95S WCI  11
ROLLA          CLOUDY    14  12  92 CALM      29.96S
 ***** THE ABOVE OBSERVATIONS ARE NON NWS ARE NOT QUALITY
       CONTROLLED AND MAY MIS-REPORT RAIN FOR SNOW...
$$

  *****  WEATHER ACROSS NORTHERN MINNESOTA  *****

CITY           SKY/WX    TMP DP  RH WIND       PRES   REMARKS
FLAG ISLAND    CLOUDY     7  -2  66 E6        30.00R WCI  -3
WARROAD        MOCLDY     9   1  72 NE10      29.99S WCI  -6
ROSEAU         PTCLDY    10   3  72 E10       29.99S WCI  -3
HALLOCK        CLEAR     10   5  79 NE5       30.01R WCI   2
THF RVR FALLS  PTCLDY    12   7  79 NE7       29.96F WCI   2
BAUDETTE       MOCLDY     8  -1  66 E7        29.97S WCI  -3
WASKISH        CLOUDY    10   3  72 NE8       29.96R WCI  -1
CROOKSTON      PTCLDY    18  10  73 NE7       29.98S WCI   8
$$
  *****  WEATHER ACROSS CENTRAL AND WEST MINNESOTA  *****

CITY           SKY/WX    TMP DP  RH WIND       PRES   REMARKS
FOSSTON        CLOUDY    12   9  85 NE7       29.95R WCI   2
BEMIDJI        CLOUDY    15   9  78 NE5       29.92R WCI   8
PARK RAPIDS    CLOUDY    22  13  68 NE6       29.88R WCI  14
ELBOW LAKE     CLOUDY    29  26  87 N6        29.88R WCI  23
WADENA         CLOUDY    21  18  86 NE6       29.88R WCI  14
DETROIT LAKES  PTCLDY    25  19  80 NE6       29.91R WCI  18
MOORHEAD       CLOUDY    21  19  93 N8        29.95R WCI  12
FERGUS FALLS   MOCLDY    27  23  86 N5        29.92R WCI  21
MORRIS MN      CLOUDY    30  28  93 N8        29.87R WCI  23
STAPLES        CLOUDY    25  21  86 NE5       29.89R WCI  19
$$
  *****  WEATHER ELSEWHERE ACROSS MINNESOTA  *****

CITY           SKY/WX    TMP DP  RH WIND       PRES   REMARKS
DULUTH         FLURRIES  18  12  77 NE10      29.92R WCI   6
INTRNTL FALLS  MOCLDY     3  -5  69 E9        29.99S WCI -12
ELY            PTCLDY    -4  -8  84 CALM      29.98R
CLOQUET        FLURRIES  19  12  73 E14G21    29.93R WCI   6
WHEATON        CLOUDY    25  23  93 NW12      29.93R WCI  14
BRAINERD       CLOUDY    22  15  75 E7        29.90R WCI  13
HIBBING        CLOUDY    17   8  67 E5        29.93R WCI  10
ALEXANDRIA     CLOUDY    30  26  85 NE7       29.86R WCI  23
SAINT CLOUD    CLOUDY    26  20  77 N9        29.88R WCI  17
MINNEAPOLIS    CLOUDY    27  20  75 N18       29.84R WCI  14
$$

  *****  WEATHER ACROSS SOUTH DAKOTA  *****

CITY           SKY/WX    TMP DP  RH WIND       PRES   REMARKS
SIOUX FALLS    FLURRIES  33  31  92 N16       29.82R WCI  23
BROOKINGS      NOT AVBL
WATERTOWN      CLOUDY    30  27  88 N13       29.86R WCI  20
HURON          CLOUDY    31  29  92 NW12      29.90R WCI  22
SISSETON         N/A     26  24  92 N16       29.91R WCI  14
ABERDEEN       CLOUDY    29  26  89 N9        29.93R WCI  20
MITCHELL       CLOUDY    32  30  92 N15       29.90R WCI  22
PIERRE         CLOUDY    38  31  76 NW20G25   29.93S
MOBRIDGE       CLOUDY    38  33  82 NW9       29.90R
RAPID CITY     CLEAR     37  21  52 NW21      30.02S
$$

  *****  SOME WEATHER IN NEARBY STATES *****

CITY           SKY/WX    TMP DP  RH WIND       PRES   REMARKS
GLASGOW MT     CLOUDY    31  26  82 SW5       30.02F
GREAT FALLS MT PTCLDY    46  37  71 SW15      30.00F
CHEYENNE WY    CLEAR     34  24  67 NW10      30.11F
SCOTTSBLUFF NE CLEAR     38  26  62 NW20G28   30.09S
OMAHA NE       LGT RAIN  35  32  88 NW23G32   29.71R WCI  23
DES MOINES IA  CLOUDY    40  36  86 N7        29.59R
DAVENPORT IA   CLOUDY    34  31  88 E15       29.62R FOG     WCI  24
CHICAGO IL     CLOUDY    34  32  92 NE14      29.70R WCI  25
EAU CLAIRE WI  CLOUDY    26  18  71 NE12      29.82R WCI  16
LA CROSSE WI   CLOUDY    31  25  78 E12       29.78R WCI  22
$$

  *****  SOME NATIONAL WEATHER *****

CITY           SKY/WX    TMP DP  RH WIND       PRES   REMARKS
LA GUARDIA NY  PTCLDY    35  24  64 W18G29    29.63R WCI  24
RALEIGH NC     PTCLDY    30  24  78 W3        29.90R
ATLANTA GA     CLEAR     31  26  82 CALM      29.96R
NEW ORLEANS LA PTCLDY    42  39  89 S8        30.05F
OKLAHOMA CITY  PTCLDY    52  35  52 NW20G25   29.91R
ALBUQUERQUE NM PTCLDY    30  19  63 SE5       30.25F
SALT LAKE CITY CLOUDY    33  30  88 CALM      30.46F
LOS ANGELES CA CLEAR     55  34  45 CALM      30.03S
BOISE ID       CLEAR     31  27  85 SE6       30.46F
SEATTLE WA     FOG       53  52  96 S5        30.22F VSB 1/2
$$

*** WEATHER ACROSS MANITOBA...SASKATCHEWAN AND ONTARIO ***
                ***ONTARIO***

CITY           SKY/WX    TMP DP  RH WIND       PRES   REMARKS
GERALDTON      CLEAR    -17 -22  76 NW3       30.04R
THUNDER BAY    CLEAR    -13 -17  84 SW3       30.09R
SIOUX LOOKOUT  PTCLDY   -18 -24  76 E3        30.03F
TORONTO        PTCLDY    12   5  73 N15G21    29.81R WCI  -4
BIG TROUT LK   CLEAR    -22 -27  76 W6        30.09F WCI -38
PICKLE LAKE    PTCLDY   -17 -22  76 W3        30.04
DRYDEN         CLOUDY    -6  -9  84 E7        30.01S WCI -20
KENORA         CLOUDY     1  -6  71 E7        30.00S WCI -11
$$
                *** MANITOBA***

CITY           SKY/WX    TMP DP  RH WIND       PRES   REMARKS
BRANDON        CLOUDY    10   7  85 SE3       30.00F
DAUPHIN        CLOUDY    10   7  85 W5        30.01F WCI   2
ISLAND LAKE    CRYSTALS -15 -20  76 SE5       30.04F WCI -27
PILOT MOUND      N/A     12   9  85 N3          N/A
THE PAS        FLURRIES   5   1  85 S8        29.93F WCI  -8
THOMPSON       FLURRIES  -6 -11  77 VRB2      29.98
WINNIPEG       MOCLDY    14   5  67 E3        30.03S
LYNN LAKE      FLURRIES   0  -4  85 S5        29.81F WCI -10
CHURCHILL      CLEAR    -27 -35  68 SW7       30.07F WCI -46
GILLAM         CLEAR    -24 -29  76 SW2       30.07S
$$
                ***SASKATCHEWAN***

CITY           SKY/WX    TMP DP  RH WIND       PRES   REMARKS
ESTEVAN        CLOUDY    30  28  93 W13       29.97R WCI  20
KINDERSLEY     MOCLDY    27  25  93 S10       29.88F WCI  17
LLOYDMINSTER   CLOUDY    34  27  75 S12       29.76F
PRINCE ALBERT  CLOUDY    23  21  93 SW3       29.84F FOG
REGINA         FOG       21  21 100 VRB2      29.96F VSB 3/8
YORKTON        CLOUDY     5   1  85 S5        29.96F WCI  -4
N. BATTLEFORD  PTCLDY    28  27  93 SE6       29.84F WCI  22
LA RONGE       FLURRIES  18  16  93 E2        29.77F
SASKATOON      MOCLDY    27  27 100 S10       29.90F WCI  17
SWIFT CURRENT  CLOUDY    32  27  80 SW15      29.91F WCI  22
$$
NOTE: THESE ARE AUTOMATED STATIONS WITH LIMITED QUALITY CONTROL
      "FAIR" INDICATES FEW OR NO CLOUDS BELOW 12,000 FEET WITH NO
      SIGNIFICANT WEATHER AND/OR OBSTRUCTIONS TO VISIBILITY.
      SKY/WX - SKY CONDITION AND SIGNIFICANT WEATHER.
      TMP - AIR TEMPERATURE.    DP   - DEWPOINT TEMPERATURE.
      RH  - RELATIVE HUMIDITY.  PRES - PRESSURE.
      HX  - HEAT INDEX.         WCI  - WIND CHILL INDEX.
$



USA.gov is the U.S. government's official web portal to all federal, state and local government web resources and services.